Location: Heiligenberg
(48.5381°N, 7.3897°E)
Time: 20:39:15
(UTC+00:00)

NPP - Pass Details

Date: 26 May 2022
Orbit: 826 x 828 km, 98.7° (Epoch: 04 July)

Event Time Altitude Azimuth Distance (km) Brightness Sun altitude
Rises 01:48:32 0° 12° (NNE) 3,380 8.2 -13.6°
Reaches altitude 10° 01:50:54 10° 9° (N) 2,442 7.2 -13.3°
Maximum altitude 01:56:14 63° 290° (WNW) 922 3.8 -12.8°
Enters shadow 02:00:20 17° 213° (SSW) 1,967 5.0 -12.4°
